Location: Le Gr�zie
(43.6000°N, 13.5000°E)
Time: 21:33:28
(UTC+00:00)

Cosmos 1763 Rocket - Pass Details

Date: 09 April 2020
Orbit: 734 x 779 km, 74.0° (Epoch: 23 May)

Event Time Altitude Azimuth Distance (km) Brightness Sun altitude
Rises 19:43:20 0° 343° (NNW) 3,224 7.5 -20.8°
Reaches altitude 10° 19:45:47 10° 349° (NNW) 2,287 6.6 -21.2°
Maximum altitude 19:50:50 52° 65° (ENE) 931 3.7 -21.9°
Enters shadow 19:51:30 48° 92° (E) 968 3.6 -22.0°
